TimeCST,TemperatureF,Dew PointF,Humidity,Sea Level PressureIn,VisibilityMPH,Wind Direction,Wind SpeedMPH,Gust SpeedMPH,PrecipitationIn,Events,Conditions,WindDirDegrees,DateUTC
12:53 AM,28.9,26.1,89,30.56,9.0,NNE,5.8,-,N/A,,Haze,30,2013-12-24 06:53:00
1:53 AM,28.0,25.0,88,30.54,7.0,NNE,5.8,-,N/A,,Haze,30,2013-12-24 07:53:00
2:53 AM,27.0,25.0,92,30.54,7.0,NNE,4.6,-,N/A,,Haze,30,2013-12-24 08:53:00
3:53 AM,27.0,24.1,89,30.54,6.0,NNE,5.8,-,N/A,,Haze,30,2013-12-24 09:53:00
4:53 AM,25.0,23.0,92,30.52,6.0,NNE,4.6,-,N/A,,Haze,30,2013-12-24 10:53:00
5:53 AM,25.0,24.1,96,30.53,5.0,Calm,Calm,-,N/A,,Haze,0,2013-12-24 11:53:00
6:53 AM,26.1,23.0,88,30.53,6.0,ENE,3.5,-,N/A,,Clear,60,2013-12-24 12:53:00
7:53 AM,26.1,24.1,92,30.53,5.0,Calm,Calm,-,N/A,,Clear,0,2013-12-24 13:53:00
8:53 AM,28.9,25.0,85,30.53,5.0,SE,4.6,-,N/A,,Clear,140,2013-12-24 14:53:00
9:53 AM,32.0,27.0,82,30.53,5.0,SE,8.1,-,N/A,,Haze,140,2013-12-24 15:53:00
10:53 AM,37.0,28.9,73,30.51,8.0,SSE,9.2,-,N/A,,Clear,150,2013-12-24 16:53:00
11:53 AM,42.1,32.0,67,30.46,10.0,South,10.4,-,N/A,,Clear,170,2013-12-24 17:53:00
12:53 PM,46.9,33.1,59,30.40,10.0,SSE,13.8,-,N/A,,Clear,160,2013-12-24 18:53:00
1:53 PM,51.1,33.1,50,30.35,10.0,SSE,15.0,-,N/A,,Clear,160,2013-12-24 19:53:00
2:53 PM,52.0,34.0,50,30.31,10.0,SSE,17.3,-,N/A,,Clear,150,2013-12-24 20:53:00
3:53 PM,52.0,34.0,50,30.29,10.0,SSE,18.4,-,N/A,,Clear,160,2013-12-24 21:53:00
4:53 PM,50.0,32.0,50,30.27,10.0,SSE,16.1,-,N/A,,Clear,160,2013-12-24 22:53:00
5:53 PM,48.0,33.1,56,30.27,10.0,SSE,16.1,-,N/A,,Clear,160,2013-12-24 23:53:00
6:53 PM,46.0,33.1,61,30.27,10.0,SSE,10.4,-,N/A,,Clear,150,2013-12-25 00:53:00
7:53 PM,45.0,34.0,65,30.26,10.0,SSE,12.7,-,N/A,,Clear,160,2013-12-25 01:53:00
8:53 PM,44.1,33.1,65,30.25,10.0,SSE,12.7,-,N/A,,Clear,150,2013-12-25 02:53:00
9:53 PM,43.0,30.9,62,30.25,10.0,SSE,9.2,-,N/A,,Clear,150,2013-12-25 03:53:00
10:53 PM,43.0,30.9,62,30.26,10.0,SSE,10.4,-,N/A,,Clear,160,2013-12-25 04:53:00
11:53 PM,39.9,30.0,68,30.26,10.0,SSE,9.2,-,N/A,,Clear,160,2013-12-25 05:53:00